Location: Henham
(51.9333°N, 0.2500°E)
Time: 17:20:58
(UTC+00:00)

Cosmos 2227 Rocket - Pass Details

Date: 23 October 2019
Orbit: 838 x 846 km, 71.0° (Epoch: 14 November)

Event Time Altitude Azimuth Distance (km) Brightness Sun altitude
Rises 19:06:20 0° 324° (NW) 3,420 6.0 -21.8°
Reaches altitude 10° 19:10:09 10° 349° (N) 2,482 4.9 -22.4°
Maximum altitude 19:13:03 14° 20° (NNE) 2,206 4.3 -22.8°
Enters shadow 19:14:01 14° 31° (NNE) 2,237 4.2 -22.9°
